Location: Staunton
(38.1490°N, 79.0720°W)
Time: 17:46:59
(UTC-04:00)

ISS - Pass Details

Date: 28 March 2017
Orbit: 399 x 409 km, 51.6° (Epoch: 26 March)

Event Time Altitude Azimuth Distance (km) Brightness Sun altitude
Rises 21:05:41 0° 247° (WSW) 2,299 0.8 -18.0°
Reaches altitude 10° 21:07:50 10° 256° (WSW) 1,445 -0.2 -18.4°
Maximum altitude 21:10:53 38° 326° (NW) 633 -2.5 -19.0°
Enters shadow 21:12:41 20° 25° (NNE) 996 -1.9 -19.3°
